Location: Unspecified
(40.7945°N, 111.1337°W)
Time: 17:09:55
(UTC-06:00)

Vanguard 1 - Pass Details

Date: 04 July 2019
Orbit: 653 x 3830 km, 34.3° (Epoch: 15 July)

Event Time Altitude Azimuth Distance (km) Brightness Sun altitude
Rises 20:35:29 0° 177° (S) 6,752 14.0 3.1°
Reaches altitude 10° 20:42:40 10° 159° (SSE) 6,272 13.7 1.9°
Maximum altitude 20:53:35 17° 127° (SE) 6,208 13.5 0.1°
Drops below altitude 10° 21:05:21 10° 96° (E) 6,925 13.8 -1.8°
Sets 21:13:48 0° 80° (E) 7,780 14.2 -3.1°
